sat.trackr.live / text

‹ back to catalog

STARLINK-4287

NORAD 53020 · 2022-076AL

PAYLOAD ACTIVE UNKNOWN

§ Identity

Operator
Country
US
Launch date
2022-07-07
Launch site
AFETR
Launch vehicle
Mass (kg)
RCS (m²)

Purposes: comms

External: N2YO · Heavens-Above · Gunter

§ Orbital elements

Epoch: 2026-05-25T03:09:08.487936Z

Period
95.44 min
Inclination
53.2148°
Eccentricity
0.0001333
Mean motion
15.08840217 rev/d
Perigee alt
538.8 km
Apogee alt
540.7 km
Semi-major
6,917.9 km
B*
3.1396e-5
RAAN
100.9581°
Arg perigee
75.3057°
Mean anomaly
284.8082°
Rev number
21,452

§ Raw data

STARLINK-42871 53020U 22076AL  26145.13134824  .00000212  00000+0  31396-4 0  99912 53020  53.2148 100.9581 0001333  75.3057 284.8082 15.08840217214528

JSON: /api/v1/satellites/53020 · /tle

For live sub-satellite position, see the globe view (requires WebGL).

§ Visibility from observer

Set your observer location to see the next 7 days of passes ≥ 10°. The values pass through the URL so the page stays shareable.

No JS? Fill the form by hand. The geolocation button needs JavaScript.